[[{"header":{"parameterUnit":"m.s-1","parameterCategory":1,"la1":30.2991,"la2":30.254,"lo1":-89.0895,"lo2":-89.0444,"dy":0.0017,"dx":0.0017,"nx":28,"ny":28,"refTime":"2024-03-17T21:00:00:Z","depth":0,"parameterNumber":2,"parameterNumberName":"U-component_of_WINDS"},"data":[0,0,0,0,0,0,0,0,0,0,0,0,0,0,0,0,0,0,0,0,0,0,0,0,0,0,0,0,0,0,0,0,0,0,0,0,0,0,0,0,0,0,0,0,0,0,0,0,0,0,0,0,0,0,0,0,0,0,0.9123,0.9124,0,0.9156,0.9156,0.9157,0.9179,0.9179,0.9179,0.9179,0.9212,0.9212,0.9213,0,0,0,0,0,0,0,0,0,0,0,0,0,0.908,0.9081,0.9123,0.9124,0.9124,0.9156,0.9156,0.9157,0.9179,0.9179,0.9179,0.9179,0.9211,0.9212,0.9213,0,0,0,0,0,0,0,0,0,0,0,0,0,0.9105,0.9081,0.9123,0.9139,0.9141,0.9156,0.9156,0.9157,0.9179,0.9179,0.9179,0.918,0.9211,0.9212,0.9213,0.9215,0,0,0.9216,0.9217,0,0,0,0,0,0,0,0,0.9103,0.9106,0.9136,0.9138,0.914,0.9164,0.9153,0.9176,0.9179,0.9164,0.9179,0.918,0.9195,0.9198,0.9203,0.9216,0.9218,0.9217,0.9217,0.9218,0.9218,0,0,0,0,0,0,0,0.9101,0.9105,0.9136,0.9137,0.9139,0.9145,0.9148,0.9157,0.9178,0.9166,0.9167,0.9171,0.9196,0.9202,0.9204,0.9218,0.9216,0.9217,0.9218,0.9219,0.9236,0.9236,0,0,0,0,0,0,0.9097,0.9103,0.9135,0.9137,0.9122,0.9145,0.9149,0.9156,0.9178,0.9182,0.9171,0.9172,0.92,0.9203,0.9205,0.921,0.9218,0.9219,0.9219,0.9236,0.9236,0.9236,0,0,0,0,0,0,0.9096,0.91,0.9134,0.9121,0.9125,0.9146,0.9153,0.9156,0.9162,0.9182,0.9186,0.9173,0.9201,0.9204,0.9213,0.9211,0.9219,0.922,0.9236,0.9236,0.9236,0.9217,0,0,0,0,0,0,0.9095,0.9099,0.91,0.9121,0.9126,0.914,0.9152,0.9157,0.9164,0.9166,0.9185,0.9188,0.9201,0.9211,0.9214,0.9213,0.9221,0.9236,0.9236,0.9236,0.9218,0.9216,0.9215,0,0,0,0,0,0.9093,0.9093,0.91,0.9103,0.9127,0.914,0.9143,0.9158,0.9164,0.9165,0.9178,0.9188,0.9211,0.9212,0.9215,0.9214,0.9237,0.9236,0.9236,0.9219,0.9217,0.9215,0,0,0,0,0,0,0.907,0.9096,0.9104,0.911,0.9123,0.9144,0.9145,0.9155,0.9167,0.9168,0.9186,0.919,0.9197,0.9207,0.9207,0.9218,0.9225,0.9225,0.9211,0.9209,0.9208,0.9205,0.9222,0,0,0,0,0,0.9066,0.9075,0.9096,0.91,0.9106,0.9124,0.9131,0.9141,0.9155,0.9161,0.9174,0.9187,0.9198,0.9204,0.9215,0.922,0.9225,0.9221,0.922,0.9218,0.9218,0.9223,0.9222,0.9234,0.9234,0.9234,0,0,0.9057,0.9072,0.9076,0.9095,0.9107,0.9115,0.9129,0.9137,0.9144,0.9162,0.9171,0.9182,0.9198,0.9205,0.9209,0.9213,0.9216,0.9218,0.9217,0.9217,0.9222,0.9221,0.922,0.9234,0.9234,0.9234,0,0,0.9045,0.9057,0.9062,0.9074,0.9091,0.9104,0.9105,0.9125,0.9133,0.9143,0.9157,0.9166,0.9183,0.9194,0.9202,0.9197,0.9207,0.92,0.9192,0.9196,0.9195,0.9194,0.9193,0.9193,0.92,0.92,0.92,0,0.9032,0.9045,0.9063,0.9071,0.9079,0.9098,0.9103,0.9113,0.9133,0.9138,0.9143,0.9167,0.9178,0.9189,0.9188,0.9194,0.9196,0.9198,0.9194,0.9193,0.9193,0.9192,0.9192,0.9199,0.9199,0.9199,0.9199,0,0.9028,0.9038,0.904,0.9059,0.9068,0.9074,0.9093,0.91,0.9111,0.9124,0.9134,0.915,0.9164,0.9168,0.9178,0.9181,0.9183,0.9191,0.9198,0.9191,0.919,0.919,0.9198,0.9198,0.9198,0.9199,0,0,0.9001,0.9032,0.9032,0.9042,0.9064,0.9072,0.908,0.9095,0.9101,0.9114,0.9122,0.9137,0.9145,0.9154,0.9166,0.917,0.9166,0.9178,0.9178,0.9175,0.9172,0.9166,0.9165,0.9174,0.9174,0.9174,0.917,0,0.8992,0.9008,0.9025,0.9034,0.9044,0.9062,0.907,0.9084,0.9096,0.9107,0.912,0.9131,0.9141,0.9146,0.9151,0.9166,0.9166,0.9166,0.9181,0.9181,0.9176,0.9164,0.9158,0.9154,0.917,0.917,0.917,0,0.8984,0.8998,0.9008,0.9031,0.9036,0.9041,0.9058,0.9067,0.9085,0.9094,0.9105,0.9118,0.9128,0.9135,0.915,0.915,0.9157,0.9166,0.9166,0.9167,0.9175,0.9166,0.9153,0.9152,0.917,0.917,0.917,0,0.8963,0.8984,0.8994,0.9002,0.9028,0.9032,0.9044,0.9061,0.907,0.9084,0.909,0.9106,0.9114,0.9126,0.9143,0.9146,0.9156,0.9164,0.9164,0.9163,0.9164,0.9164,0.9152,0.9169,0.9169,0.9169,0.9169,0,0.8951,0.8957,0.8985,0.8991,0.8999,0.9019,0.9026,0.9039,0.9055,0.9064,0.9081,0.9089,0.9112,0.9123,0.9137,0.9147,0.9151,0.9159,0.9162,0.9157,0.9156,0.9161,0.9162,0.9169,0.9169,0.9169,0.9169,0,0.8929,0.8948,0.896,0.8985,0.8991,0.8996,0.9017,0.9024,0.9038,0.905,0.9054,0.9076,0.909,0.9109,0.9129,0.9138,0.9147,0.9153,0.9141,0.9143,0.9142,0.9142,0.9133,0.9134,0.915,0.915,0.915,0,0.8919,0.8925,0.8951,0.8959,0.8969,0.8981,0.8991,0.9012,0.9021,0.9043,0.9047,0.9063,0.9076,0.9098,0.9116,0.9132,0.9138,0.9134,0.914,0.9136,0.9139,0.9138,0.9139,0.9132,0.9132,0.9132,0.9132,0,0.8901,0.8911,0.8924,0.8942,0.8953,0.8967,0.8982,0.8987,0.9012,0.9021,0.9037,0.9047,0.9069,0.9084,0.9103,0.9115,0.9127,0.913,0.9131,0.9125,0.9118,0.9123,0.9137,0.913,0.913,0.913,0.913,0.913,0.8885,0.8891,0.8911,0.8926,0.894,0.8954,0.8962,0.8979,0.8992,0.9011,0.9023,0.9038,0.9057,0.9084,0.9095,0.9108,0.9113,0.9113,0.9114,0.9114,0.9112,0.9117,0.9111,0.9111,0.9111,0.9112,0.9112,0,0.8868,0.8883,0.8896,0.8918,0.8929,0.8942,0.896,0.8969,0.8982,0.8999,0.9013,0.9031,0.9047,0.9068,0.9085,0.9091,0.9098,0.9095,0.9095,0.9098,0.9107,0.9104,0.909,0.909,0.909,0.909,0.909,0.909,0.8861,0.8872,0.8885,0.8904,0.8918,0.8934,0.8943,0.8957,0.8971,0.8991,0.9005,0.9018,0.9037,0.9057,0.9072,0.9078,0.9084,0.908,0.9087,0.9095,0.9097,0.9099,0.9097,0.9081,0.9081,0.9077,0.9077,0.9077]},{"header":{"parameterUnit":"m.s-1","parameterCategory":1,"la1":30.2991,"la2":30.254,"lo1":-89.0895,"lo2":-89.0444,"dy":0.0017,"dx":0.0017,"nx":28,"ny":28,"refTime":"2024-03-17T21:00:00:Z","depth":0,"parameterNumber":3,"parameterNumberName":"V-component_of_WINDS"},"data":[0,0,0,0,0,0,0,0,0,0,0,0,0,0,0,0,0,0,0,0,0,0,0,0,0,0,0,0,0,0,0,0,0,0,0,0,0,0,0,0,0,0,0,0,0,0,0,0,0,0,0,0,0,0,0,0,0,0,-9.3116,-9.3117,0,-9.3289,-9.3291,-9.3293,-9.318,-9.3174,-9.3169,-9.3164,-9.3336,-9.3346,-9.3355,0,0,0,0,0,0,0,0,0,0,0,0,0,-9.2681,-9.2689,-9.3115,-9.3118,-9.312,-9.3289,-9.3291,-9.3294,-9.318,-9.3174,-9.3168,-9.3162,-9.3333,-9.3344,-9.3356,0,0,0,0,0,0,0,0,0,0,0,0,0,-9.2863,-9.2692,-9.3115,-9.3084,-9.3083,-9.3289,-9.3291,-9.3294,-9.3182,-9.3174,-9.3166,-9.3159,-9.333,-9.3343,-9.3357,-9.3602,0,0,-9.3401,-9.3407,0,0,0,0,0,0,0,0,-9.2853,-9.2879,-9.3086,-9.3086,-9.3085,-9.3205,-9.3201,-9.3397,-9.3184,-9.3144,-9.3164,-9.3155,-9.3299,-9.3315,-9.3364,-9.361,-9.3617,-9.3402,-9.341,-9.3417,-9.3421,0,0,0,0,0,0,0,-9.2841,-9.2871,-9.3184,-9.3089,-9.3089,-9.3059,-9.3077,-9.3238,-9.3263,-9.3147,-9.3139,-9.3161,-9.3297,-9.3351,-9.3368,-9.362,-9.3401,-9.3414,-9.3423,-9.3428,-9.4075,-9.4083,0,0,0,0,0,0,-9.2831,-9.2862,-9.3178,-9.3189,-9.2948,-9.3074,-9.3093,-9.3174,-9.3261,-9.3267,-9.3168,-9.3156,-9.3331,-9.3351,-9.3373,-9.3666,-9.3416,-9.343,-9.3438,-9.4066,-9.4077,-9.4086,0,0,0,0,0,0,-9.2822,-9.2861,-9.3171,-9.3023,-9.3061,-9.309,-9.3182,-9.3182,-9.3236,-9.3277,-9.328,-9.3219,-9.3325,-9.3353,-9.3546,-9.367,-9.3436,-9.3449,-9.4056,-9.407,-9.4082,-9.4254,0,0,0,0,0,0,-9.281,-9.2858,-9.2953,-9.3027,-9.3069,-9.3344,-9.3189,-9.3191,-9.3262,-9.3247,-9.3326,-9.3331,-9.3321,-9.3526,-9.3561,-9.3686,-9.346,-9.4045,-9.4062,-9.4077,-9.4237,-9.4271,-9.43,0,0,0,0,0,-9.2795,-9.2993,-9.2958,-9.2997,-9.3188,-9.3351,-9.3375,-9.3362,-9.3272,-9.3367,-9.3393,-9.3329,-9.3651,-9.3547,-9.3585,-9.3716,-9.4037,-9.4057,-9.4076,-9.4223,-9.4264,-9.4299,0,0,0,0,0,0,-9.293,-9.3002,-9.2964,-9.3191,-9.3267,-9.3332,-9.3451,-9.3406,-9.3506,-9.3488,-9.3464,-9.3483,-9.3686,-9.3719,-9.3602,-9.3957,-9.383,-9.3858,-9.3928,-9.3968,-9.3999,-9.3987,-9.3472,0,0,0,0,0,-9.2987,-9.3115,-9.317,-9.3365,-9.3405,-9.3422,-9.3492,-9.3475,-9.3551,-9.3582,-9.3622,-9.3697,-9.3815,-9.3893,-9.4003,-9.4241,-9.4257,-9.435,-9.4381,-9.4407,-9.4432,-9.4561,-9.4603,-9.415,-9.415,-9.415,0,0,-9.3104,-9.3159,-9.3241,-9.3393,-9.345,-9.3582,-9.3449,-9.3594,-9.3692,-9.3603,-9.3789,-9.3821,-9.3903,-9.412,-9.4217,-9.4154,-9.456,-9.4432,-9.4452,-9.4463,-9.4585,-9.4628,-9.4666,-9.4164,-9.4161,-9.4159,0,0,-9.3386,-9.3441,-9.361,-9.367,-9.3757,-9.3767,-9.3808,-9.3881,-9.39,-9.4087,-9.4023,-9.4138,-9.4341,-9.4403,-9.4461,-9.4767,-9.4712,-9.4804,-9.4968,-9.5094,-9.513,-9.5162,-9.5272,-9.5312,-9.4828,-9.4828,-9.4829,0,-9.3521,-9.3719,-9.3702,-9.3854,-9.3922,-9.385,-9.4021,-9.4079,-9.4198,-9.4246,-9.4175,-9.443,-9.4479,-9.471,-9.4786,-9.4834,-9.488,-9.4795,-9.5127,-9.5158,-9.5187,-9.5292,-9.5334,-9.4839,-9.4838,-9.4837,-9.4836,0,-9.3881,-9.402,-9.4146,-9.4265,-9.4348,-9.4508,-9.4514,-9.46,-9.4576,-9.4593,-9.4784,-9.4841,-9.4963,-9.5016,-9.4993,-9.5244,-9.5203,-9.513,-9.5001,-9.5241,-9.534,-9.538,-9.4854,-9.4851,-9.4847,-9.4845,0,0,-9.4253,-9.4362,-9.4409,-9.4463,-9.4554,-9.466,-9.4817,-9.4938,-9.5013,-9.5097,-9.5227,-9.5402,-9.5335,-9.5401,-9.5384,-9.5495,-9.5735,-9.5407,-9.5409,-9.5467,-9.6017,-9.6072,-9.6119,-9.5699,-9.5707,-9.5713,-9.601,0,-9.4541,-9.4817,-9.4807,-9.5064,-9.5192,-9.5126,-9.5262,-9.5332,-9.5353,-9.5463,-9.5484,-9.5609,-9.5511,-9.5551,-9.5657,-9.5684,-9.5845,-9.5662,-9.582,-9.5826,-9.5803,-9.617,-9.6229,-9.6507,-9.6048,-9.6055,-9.6059,0,-9.4915,-9.5015,-9.5285,-9.536,-9.5413,-9.5536,-9.5647,-9.5754,-9.5832,-9.5839,-9.5914,-9.5879,-9.6036,-9.5903,-9.6119,-9.5995,-9.6058,-9.6081,-9.6092,-9.6106,-9.5958,-9.6196,-9.6595,-9.6638,-9.6119,-9.6115,-9.611,0,-9.5161,-9.5362,-9.5551,-9.5598,-9.5689,-9.5778,-9.5819,-9.589,-9.5964,-9.606,-9.6108,-9.622,-9.6282,-9.6369,-9.6365,-9.6268,-9.6585,-9.6451,-9.6594,-9.6595,-9.6665,-9.6661,-9.7081,-9.6704,-9.6704,-9.6703,-9.6702,0,-9.5484,-9.5653,-9.5663,-9.5779,-9.5966,-9.5951,-9.6136,-9.6168,-9.6231,-9.6352,-9.6299,-9.6413,-9.64,-9.6514,-9.6512,-9.6692,-9.6719,-9.6729,-9.6727,-9.6735,-9.6734,-9.6777,-9.6758,-9.6714,-9.6712,-9.6709,-9.6708,0,-9.5791,-9.5804,-9.6006,-9.6076,-9.6098,-9.6232,-9.6292,-9.6401,-9.6417,-9.657,-9.6605,-9.663,-9.6761,-9.6766,-9.6916,-9.6914,-9.7134,-9.7109,-9.7109,-9.7105,-9.7249,-9.7236,-9.7712,-9.7774,-9.7356,-9.736,-9.7364,0,-9.5997,-9.6126,-9.6211,-9.6289,-9.6337,-9.6463,-9.6539,-9.6529,-9.661,-9.671,-9.6807,-9.6934,-9.7036,-9.7249,-9.7279,-9.7394,-9.7372,-9.7531,-9.7388,-9.7393,-9.7375,-9.7368,-9.7381,-9.7559,-9.7564,-9.7567,-9.757,0,-9.6363,-9.6364,-9.6476,-9.6593,-9.6686,-9.6776,-9.686,-9.6926,-9.6926,-9.7019,-9.7155,-9.7233,-9.7388,-9.7515,-9.7627,-9.7667,-9.762,-9.7615,-9.7655,-9.7665,-9.766,-9.7666,-9.7186,-9.7604,-9.7601,-9.7598,-9.7597,-9.7595,-9.6627,-9.6738,-9.6817,-9.6944,-9.7007,-9.7086,-9.7194,-9.7224,-9.7338,-9.7465,-9.7451,-9.7602,-9.7676,-9.7822,-9.7872,-9.7988,-9.7933,-9.799,-9.8004,-9.8019,-9.8035,-9.7641,-9.8008,-9.8007,-9.8006,-9.8005,-9.8005,0,-9.699,-9.7038,-9.7156,-9.7276,-9.7376,-9.7325,-9.7415,-9.7502,-9.7636,-9.771,-9.7812,-9.7968,-9.8091,-9.8131,-9.825,-9.8335,-9.8317,-9.8367,-9.8361,-9.8371,-9.8077,-9.8032,-9.8381,-9.838,-9.838,-9.838,-9.838,-9.838,-9.7192,-9.7379,-9.7389,-9.7606,-9.7651,-9.7801,-9.7857,-9.793,-9.7989,-9.8167,-9.827,-9.8296,-9.8357,-9.848,-9.859,-9.8599,-9.8645,-9.8706,-9.8705,-9.843,-9.8392,-9.8356,-9.8313,-9.8715,-9.8716,-9.899,-9.8992,-9.8994]}]]